Time,TemperatureF,DewpointF,PressureIn,WindDirection,WindDirectionDegrees,WindSpeedMPH,WindSpeedGustMPH,Humidity,HourlyPrecipIn,Conditions,Clouds,dailyrainin,SoftwareType,DateUTC
2013-04-14 00:03:00,34.0,29.0,29.92,WSW,239,5.0,-999.0,81,-99.99,,,-99.99,,2013-04-14 04:03:00,
2013-04-14 00:13:00,34.0,29.0,29.92,WSW,239,5.0,-999.0,81,-99.99,,,-99.99,,2013-04-14 04:13:00,
2013-04-14 00:23:00,33.0,28.0,29.93,WSW,238,4.0,-999.0,82,-99.99,,,-99.99,,2013-04-14 04:23:00,
2013-04-14 00:33:00,33.0,28.0,29.93,WSW,254,4.0,-999.0,83,-99.99,,,-99.99,,2013-04-14 04:33:00,
2013-04-14 00:43:00,33.0,28.0,29.93,WSW,254,4.0,-999.0,83,-99.99,,,-99.99,,2013-04-14 04:43:00,
2013-04-14 00:52:00,33.0,28.0,29.93,SSW,210,4.0,-999.0,83,-99.99,,,-99.99,,2013-04-14 04:52:00,
2013-04-14 01:03:00,33.0,28.0,29.93,WSW,250,3.0,-999.0,83,-99.99,,,-99.99,,2013-04-14 05:03:00,
2013-04-14 01:12:00,33.0,28.0,29.93,WSW,250,3.0,-999.0,83,-99.99,,,-99.99,,2013-04-14 05:12:00,
2013-04-14 01:22:00,33.0,29.0,29.93,SW,225,5.0,-999.0,84,-99.99,,,-99.99,,2013-04-14 05:22:00,
2013-04-14 01:32:00,33.0,29.0,29.93,WSW,250,4.0,-999.0,85,-99.99,,,-99.99,,2013-04-14 05:32:00,
2013-04-14 01:42:00,33.0,29.0,29.93,WSW,250,4.0,-999.0,85,-99.99,,,-99.99,,2013-04-14 05:42:00,
2013-04-14 01:52:00,33.0,29.0,29.94,SW,225,5.0,-999.0,86,-99.99,,,-99.99,,2013-04-14 05:52:00,
2013-04-14 02:02:00,33.0,29.0,29.94,SW,227,4.0,-999.0,86,-99.99,,,-99.99,,2013-04-14 06:02:00,
2013-04-14 02:12:00,33.0,29.0,29.94,SW,227,4.0,-999.0,86,-99.99,,,-99.99,,2013-04-14 06:12:00,
2013-04-14 02:22:00,33.0,30.0,29.95,SW,232,5.0,-999.0,87,-99.99,,,-99.99,,2013-04-14 06:22:00,
2013-04-14 02:32:00,33.0,30.0,29.95,SW,232,5.0,-999.0,87,-99.99,,,-99.99,,2013-04-14 06:32:00,
2013-04-14 02:42:00,33.0,30.0,29.95,SW,232,5.0,-999.0,87,-99.99,,,-99.99,,2013-04-14 06:42:00,
2013-04-14 02:52:00,32.0,29.0,29.94,SW,229,5.0,-999.0,87,-99.99,,,-99.99,,2013-04-14 06:52:00,
2013-04-14 03:02:00,32.0,29.0,29.94,WSW,256,4.0,-999.0,87,-99.99,,,-99.99,,2013-04-14 07:02:00,
2013-04-14 03:12:00,32.0,29.0,29.94,WSW,256,4.0,-999.0,87,-99.99,,,-99.99,,2013-04-14 07:12:00,
2013-04-14 03:22:00,32.0,29.0,29.95,WSW,248,4.0,-999.0,88,-99.99,,,-99.99,,2013-04-14 07:22:00,
2013-04-14 03:33:00,32.0,29.0,29.95,SW,234,4.0,-999.0,88,-99.99,,,-99.99,,2013-04-14 07:33:00,
2013-04-14 03:42:00,32.0,29.0,29.95,SW,234,4.0,-999.0,88,-99.99,,,-99.99,,2013-04-14 07:42:00,
2013-04-14 03:52:00,32.0,29.0,29.95,WSW,243,3.0,-999.0,88,-99.99,,,-99.99,,2013-04-14 07:52:00,
2013-04-14 04:03:00,32.0,29.0,29.96,WSW,252,2.0,-999.0,88,-99.99,,,-99.99,,2013-04-14 08:03:00,
2013-04-14 04:13:00,32.0,29.0,29.96,WSW,252,2.0,-999.0,88,-99.99,,,-99.99,,2013-04-14 08:13:00,
2013-04-14 04:23:00,32.0,29.0,29.96,SW,225,4.0,-999.0,88,-99.99,,,-99.99,,2013-04-14 08:23:00,
2013-04-14 04:33:00,32.0,29.0,29.96,West,263,3.0,-999.0,88,-99.99,,,-99.99,,2013-04-14 08:33:00,
2013-04-14 04:42:00,32.0,29.0,29.96,West,263,3.0,-999.0,88,-99.99,,,-99.99,,2013-04-14 08:42:00,
2013-04-14 04:52:00,32.0,29.0,29.97,WSW,253,4.0,-999.0,88,-99.99,,,-99.99,,2013-04-14 08:52:00,
2013-04-14 05:03:00,32.0,29.0,29.97,WSW,246,4.0,-999.0,88,-99.99,,,-99.99,,2013-04-14 09:03:00,
2013-04-14 05:12:00,32.0,29.0,29.97,WSW,246,4.0,-999.0,88,-99.99,,,-99.99,,2013-04-14 09:12:00,
2013-04-14 05:22:00,32.0,29.0,29.97,WSW,239,4.0,-999.0,88,-99.99,,,-99.99,,2013-04-14 09:22:00,
2013-04-14 05:33:00,31.0,28.0,29.97,WSW,244,3.0,-999.0,89,-99.99,,,-99.99,,2013-04-14 09:33:00,
2013-04-14 05:43:00,31.0,28.0,29.97,WSW,244,3.0,-999.0,89,-99.99,,,-99.99,,2013-04-14 09:43:00,
2013-04-14 05:53:00,31.0,28.0,29.98,WSW,240,3.0,-999.0,89,-99.99,,,-99.99,,2013-04-14 09:53:00,
2013-04-14 06:03:00,31.0,28.0,29.98,WSW,240,2.0,-999.0,90,-99.99,,,-99.99,,2013-04-14 10:03:00,
2013-04-14 06:13:00,31.0,28.0,29.98,WSW,240,2.0,-999.0,90,-99.99,,,-99.99,,2013-04-14 10:13:00,
2013-04-14 06:23:00,30.0,27.0,29.98,WSW,240,2.0,-999.0,90,-99.99,,,-99.99,,2013-04-14 10:23:00,
2013-04-14 06:33:00,30.0,28.0,29.98,SW,232,2.0,-999.0,91,-99.99,,,-99.99,,2013-04-14 10:33:00,
2013-04-14 06:42:00,30.0,28.0,29.98,SW,232,2.0,-999.0,91,-99.99,,,-99.99,,2013-04-14 10:42:00,
2013-04-14 06:52:00,30.0,28.0,29.99,SW,214,2.0,-999.0,91,-99.99,,,-99.99,,2013-04-14 10:52:00,
2013-04-14 07:02:00,30.0,28.0,29.99,SW,229,2.0,-999.0,91,-99.99,,,-99.99,,2013-04-14 11:02:00,
2013-04-14 07:13:00,30.0,28.0,29.99,SW,229,2.0,-999.0,91,-99.99,,,-99.99,,2013-04-14 11:13:00,
2013-04-14 07:23:00,30.0,28.0,30.01,SW,219,3.0,-999.0,92,-99.99,,,-99.99,,2013-04-14 11:23:00,
2013-04-14 07:33:00,30.0,28.0,30.01,SW,227,2.0,-999.0,91,-99.99,,,-99.99,,2013-04-14 11:33:00,
2013-04-14 07:42:00,30.0,28.0,30.01,SW,227,2.0,-999.0,91,-99.99,,,-99.99,,2013-04-14 11:42:00,
2013-04-14 07:52:00,31.0,29.0,30.02,WSW,237,2.0,-999.0,91,-99.99,,,-99.99,,2013-04-14 11:52:00,
2013-04-14 08:02:00,31.0,29.0,30.03,WSW,244,3.0,-999.0,91,-99.99,,,-99.99,,2013-04-14 12:02:00,
2013-04-14 08:12:00,31.0,29.0,30.03,WSW,244,3.0,-999.0,91,-99.99,,,-99.99,,2013-04-14 12:12:00,
2013-04-14 08:22:00,32.0,29.0,30.03,WSW,248,1.0,-999.0,90,-99.99,,,-99.99,,2013-04-14 12:22:00,
2013-04-14 08:32:00,33.0,30.0,30.04,WSW,248,3.0,-999.0,89,-99.99,,,-99.99,,2013-04-14 12:32:00,
2013-04-14 08:42:00,33.0,30.0,30.04,WSW,248,3.0,-999.0,89,-99.99,,,-99.99,,2013-04-14 12:42:00,
2013-04-14 08:52:00,33.0,30.0,30.04,WSW,248,3.0,-999.0,89,-99.99,,,-99.99,,2013-04-14 12:52:00,
2013-04-14 09:02:00,33.0,30.0,30.05,WSW,237,4.0,-999.0,88,-99.99,,,-99.99,,2013-04-14 13:02:00,
2013-04-14 09:12:00,33.0,30.0,30.05,WSW,237,4.0,-999.0,88,-99.99,,,-99.99,,2013-04-14 13:12:00,
2013-04-14 09:22:00,34.0,31.0,30.05,West,278,3.0,-999.0,88,-99.99,,,-99.99,,2013-04-14 13:22:00,
2013-04-14 09:33:00,34.0,31.0,30.05,WNW,288,4.0,-999.0,87,-99.99,,,-99.99,,2013-04-14 13:33:00,
2013-04-14 09:42:00,34.0,31.0,30.05,WNW,288,4.0,-999.0,87,-99.99,,,-99.99,,2013-04-14 13:42:00,
2013-04-14 09:52:00,35.0,31.0,30.05,West,271,6.0,-999.0,86,-99.99,,,-99.99,,2013-04-14 13:52:00,
2013-04-14 10:02:00,35.0,31.0,30.03,WNW,297,4.0,-999.0,86,-99.99,,,-99.99,,2013-04-14 14:02:00,
2013-04-14 10:12:00,35.0,31.0,30.03,WNW,297,4.0,-999.0,86,-99.99,,,-99.99,,2013-04-14 14:12:00,
2013-04-14 10:22:00,35.0,31.0,30.03,NNW,337,3.0,-999.0,85,-99.99,,,-99.99,,2013-04-14 14:22:00,
2013-04-14 10:32:00,36.0,32.0,30.03,NNW,341,3.0,-999.0,85,-99.99,,,-99.99,,2013-04-14 14:32:00,
2013-04-14 10:42:00,36.0,32.0,30.03,NNW,341,3.0,-999.0,85,-99.99,,,-99.99,,2013-04-14 14:42:00,
2013-04-14 10:52:00,37.0,32.0,30.03,NNW,338,2.0,-999.0,83,-99.99,,,-99.99,,2013-04-14 14:52:00,
2013-04-14 11:03:00,37.0,32.0,30.02,North,355,3.0,-999.0,81,-99.99,,,-99.99,,2013-04-14 15:03:00,
2013-04-14 11:12:00,37.0,32.0,30.02,North,355,3.0,-999.0,81,-99.99,,,-99.99,,2013-04-14 15:12:00,
2013-04-14 11:22:00,37.0,32.0,30.01,NE,46,7.0,-999.0,83,-99.99,,,-99.99,,2013-04-14 15:22:00,
2013-04-14 11:33:00,37.0,33.0,30.01,ENE,69,6.0,-999.0,84,-99.99,,,-99.99,,2013-04-14 15:33:00,
2013-04-14 11:43:00,37.0,33.0,30.01,ENE,69,6.0,-999.0,84,-99.99,,,-99.99,,2013-04-14 15:43:00,
2013-04-14 11:53:00,38.0,33.0,30.03,NE,53,5.0,-999.0,82,-99.99,,,-99.99,,2013-04-14 15:53:00,
2013-04-14 12:05:00,38.0,33.0,30.05,East,94,5.0,-999.0,81,-99.99,,,-99.99,,2013-04-14 16:05:00,
2013-04-14 12:13:00,38.0,33.0,30.05,East,94,5.0,-999.0,81,-99.99,,,-99.99,,2013-04-14 16:13:00,
2013-04-14 12:23:00,38.0,32.0,30.05,ENE,58,5.0,-999.0,79,-99.99,,,-99.99,,2013-04-14 16:23:00,
2013-04-14 12:33:00,37.0,32.0,30.06,East,97,6.0,-999.0,81,-99.99,,,-99.99,,2013-04-14 16:33:00,
2013-04-14 12:43:00,37.0,32.0,30.06,East,97,6.0,-999.0,81,-99.99,,,-99.99,,2013-04-14 16:43:00,
2013-04-14 12:53:00,37.0,32.0,30.07,ESE,102,6.0,-999.0,82,-99.99,,,-99.99,,2013-04-14 16:53:00,
2013-04-14 13:02:00,37.0,32.0,30.07,East,87,5.0,-999.0,82,-99.99,,,-99.99,,2013-04-14 17:02:00,
2013-04-14 13:13:00,37.0,32.0,30.07,East,87,5.0,-999.0,82,-99.99,,,-99.99,,2013-04-14 17:13:00,
2013-04-14 13:22:00,38.0,33.0,30.08,East,93,5.0,-999.0,83,-99.99,,,-99.99,,2013-04-14 17:22:00,
2013-04-14 13:33:00,38.0,33.0,30.07,East,90,4.0,-999.0,82,-99.99,,,-99.99,,2013-04-14 17:33:00,
2013-04-14 13:42:00,38.0,33.0,30.07,East,90,4.0,-999.0,82,-99.99,,,-99.99,,2013-04-14 17:42:00,
2013-04-14 13:52:00,38.0,33.0,30.08,ESE,107,4.0,-999.0,83,-99.99,,,-99.99,,2013-04-14 17:52:00,
2013-04-14 14:03:00,38.0,33.0,30.08,ENE,71,4.0,-999.0,83,-99.99,,,-99.99,,2013-04-14 18:03:00,
2013-04-14 14:13:00,38.0,33.0,30.08,ENE,71,4.0,-999.0,83,-99.99,,,-99.99,,2013-04-14 18:13:00,
2013-04-14 14:22:00,38.0,34.0,30.06,NE,51,4.0,-999.0,85,-99.99,,,-99.99,,2013-04-14 18:22:00,
2013-04-14 14:33:00,39.0,34.0,30.06,East,94,3.0,-999.0,81,-99.99,,,-99.99,,2013-04-14 18:33:00,
2013-04-14 14:43:00,39.0,34.0,30.06,East,94,3.0,-999.0,81,-99.99,,,-99.99,,2013-04-14 18:43:00,
2013-04-14 14:53:00,40.0,34.0,30.05,ENE,65,5.0,-999.0,78,-99.99,,,-99.99,,2013-04-14 18:53:00,
2013-04-14 15:04:00,40.0,34.0,30.04,NE,52,6.0,-999.0,78,-99.99,,,-99.99,,2013-04-14 19:04:00,
2013-04-14 15:12:00,40.0,34.0,30.04,NE,52,6.0,-999.0,78,-99.99,,,-99.99,,2013-04-14 19:12:00,
2013-04-14 15:22:00,41.0,35.0,30.04,ENE,63,4.0,-999.0,79,-99.99,,,-99.99,,2013-04-14 19:22:00,
2013-04-14 15:32:00,40.0,34.0,30.03,ENE,69,8.0,-999.0,79,-99.99,,,-99.99,,2013-04-14 19:32:00,
2013-04-14 15:43:00,40.0,34.0,30.03,ENE,69,8.0,-999.0,79,-99.99,,,-99.99,,2013-04-14 19:43:00,
2013-04-14 15:52:00,40.0,34.0,30.01,ENE,65,9.0,-999.0,79,-99.99,,,-99.99,,2013-04-14 19:52:00,
2013-04-14 16:03:00,40.0,33.0,30.02,ENE,66,9.0,-999.0,77,-99.99,,,-99.99,,2013-04-14 20:03:00,
2013-04-14 16:13:00,40.0,33.0,30.02,ENE,66,9.0,-999.0,77,-99.99,,,-99.99,,2013-04-14 20:13:00,
2013-04-14 16:22:00,39.0,33.0,30.01,ENE,65,9.0,-999.0,80,-99.99,,,-99.99,,2013-04-14 20:22:00,
2013-04-14 16:33:00,39.0,33.0,30.01,ENE,61,7.0,-999.0,80,-99.99,,,-99.99,,2013-04-14 20:33:00,
2013-04-14 16:43:00,39.0,33.0,30.01,ENE,61,7.0,-999.0,80,-99.99,,,-99.99,,2013-04-14 20:43:00,
2013-04-14 16:52:00,39.0,34.0,30.01,ENE,75,7.0,-999.0,81,-99.99,,,-99.99,,2013-04-14 20:52:00,
2013-04-14 17:02:00,39.0,34.0,30.01,East,80,7.0,-999.0,81,-99.99,,,-99.99,,2013-04-14 21:02:00,
2013-04-14 17:13:00,39.0,34.0,30.01,East,80,7.0,-999.0,81,-99.99,,,-99.99,,2013-04-14 21:13:00,
2013-04-14 17:23:00,39.0,33.0,30.00,ENE,68,8.0,-999.0,80,-99.99,,,-99.99,,2013-04-14 21:23:00,
2013-04-14 17:33:00,39.0,34.0,30.00,NE,54,9.0,-999.0,81,-99.99,,,-99.99,,2013-04-14 21:33:00,
2013-04-14 17:43:00,39.0,34.0,30.00,NE,54,9.0,-999.0,81,-99.99,,,-99.99,,2013-04-14 21:43:00,
2013-04-14 17:53:00,39.0,34.0,29.99,ENE,66,9.0,-999.0,82,-99.99,,,-99.99,,2013-04-14 21:53:00,
2013-04-14 18:03:00,39.0,34.0,29.99,NE,36,9.0,-999.0,83,-99.99,,,-99.99,,2013-04-14 22:03:00,
2013-04-14 18:13:00,39.0,34.0,29.99,NE,36,9.0,-999.0,83,-99.99,,,-99.99,,2013-04-14 22:13:00,
2013-04-14 18:23:00,38.0,33.0,29.98,East,98,9.0,-999.0,82,-99.99,,,-99.99,,2013-04-14 22:23:00,
2013-04-14 18:33:00,39.0,33.0,29.98,NNE,16,10.0,-999.0,80,-99.99,,,-99.99,,2013-04-14 22:33:00,
2013-04-14 18:44:00,39.0,33.0,29.98,NNE,16,10.0,-999.0,80,-99.99,,,-99.99,,2013-04-14 22:44:00,
2013-04-14 18:52:00,39.0,34.0,29.98,ENE,76,11.0,-999.0,82,-99.99,,,-99.99,,2013-04-14 22:52:00,
2013-04-14 19:02:00,38.0,34.0,29.98,NE,44,11.0,-999.0,84,-99.99,,,-99.99,,2013-04-14 23:02:00,
2013-04-14 19:13:00,38.0,34.0,29.98,NE,44,11.0,-999.0,84,-99.99,,,-99.99,,2013-04-14 23:13:00,
2013-04-14 19:23:00,38.0,34.0,29.97,ENE,63,10.0,-999.0,86,-99.99,,,-99.99,,2013-04-14 23:23:00,
2013-04-14 19:33:00,39.0,36.0,29.97,NE,39,8.0,-999.0,88,-99.99,,,-99.99,,2013-04-14 23:33:00,
2013-04-14 19:43:00,39.0,36.0,29.97,NE,39,8.0,-999.0,88,-99.99,,,-99.99,,2013-04-14 23:43:00,
2013-04-14 19:52:00,40.0,36.0,29.97,NE,53,6.0,-999.0,87,-99.99,,,-99.99,,2013-04-14 23:52:00,
2013-04-14 20:02:00,41.0,37.0,29.98,ESE,111,6.0,-999.0,84,-99.99,,,-99.99,,2013-04-15 00:02:00,
2013-04-14 20:13:00,41.0,37.0,29.98,ESE,111,6.0,-999.0,84,-99.99,,,-99.99,,2013-04-15 00:13:00,
2013-04-14 20:23:00,41.0,36.0,29.98,East,90,7.0,-999.0,83,-99.99,,,-99.99,,2013-04-15 00:23:00,
2013-04-14 20:33:00,41.0,36.0,29.98,East,93,5.0,-999.0,83,-99.99,,,-99.99,,2013-04-15 00:33:00,
2013-04-14 20:42:00,41.0,37.0,29.98,ESE,105,6.0,-999.0,85,-99.99,,,-99.99,,2013-04-15 00:42:00,
2013-04-14 20:52:00,41.0,37.0,29.98,ESE,105,6.0,-999.0,85,-99.99,,,-99.99,,2013-04-15 00:52:00,
2013-04-14 21:03:00,40.0,36.0,29.98,East,99,6.0,-999.0,85,-99.99,,,-99.99,,2013-04-15 01:03:00,
2013-04-14 21:13:00,40.0,36.0,29.98,East,99,6.0,-999.0,85,-99.99,,,-99.99,,2013-04-15 01:13:00,
2013-04-14 21:23:00,40.0,36.0,29.98,ENE,65,6.0,-999.0,85,-99.99,,,-99.99,,2013-04-15 01:23:00,
2013-04-14 21:33:00,40.0,36.0,29.97,NE,40,6.0,-999.0,85,-99.99,,,-99.99,,2013-04-15 01:33:00,
2013-04-14 21:42:00,40.0,36.0,29.97,NE,40,6.0,-999.0,85,-99.99,,,-99.99,,2013-04-15 01:42:00,
2013-04-14 21:52:00,40.0,36.0,29.97,ESE,103,7.0,-999.0,85,-99.99,,,-99.99,,2013-04-15 01:52:00,
2013-04-14 22:03:00,39.0,35.0,29.97,East,100,7.0,-999.0,86,-99.99,,,-99.99,,2013-04-15 02:03:00,
2013-04-14 22:12:00,39.0,35.0,29.97,East,100,7.0,-999.0,86,-99.99,,,-99.99,,2013-04-15 02:12:00,
2013-04-14 22:22:00,39.0,35.0,29.97,East,98,7.0,-999.0,86,-99.99,,,-99.99,,2013-04-15 02:22:00,
2013-04-14 22:32:00,39.0,35.0,29.96,ENE,62,7.0,-999.0,86,-99.99,,,-99.99,,2013-04-15 02:32:00,
2013-04-14 22:42:00,39.0,35.0,29.96,ENE,62,7.0,-999.0,86,-99.99,,,-99.99,,2013-04-15 02:42:00,
2013-04-14 22:52:00,38.0,34.0,29.96,East,81,6.0,-999.0,84,-99.99,,,-99.99,,2013-04-15 02:52:00,
2013-04-14 23:03:00,38.0,34.0,29.96,East,81,7.0,-999.0,85,-99.99,,,-99.99,,2013-04-15 03:03:00,
2013-04-14 23:12:00,38.0,34.0,29.96,East,81,7.0,-999.0,85,-99.99,,,-99.99,,2013-04-15 03:12:00,
2013-04-14 23:22:00,38.0,34.0,29.96,ENE,78,6.0,-999.0,85,-99.99,,,-99.99,,2013-04-15 03:22:00,
2013-04-14 23:33:00,38.0,34.0,29.95,ESE,103,6.0,-999.0,84,-99.99,,,-99.99,,2013-04-15 03:33:00,
2013-04-14 23:43:00,38.0,34.0,29.95,ESE,103,6.0,-999.0,84,-99.99,,,-99.99,,2013-04-15 03:43:00,
2013-04-14 23:54:00,38.0,34.0,29.93,East,82,6.0,-999.0,84,-99.99,,,-99.99,,2013-04-15 03:54:00,